Location: Kitchener-Waterloo
(43.4500°N, 80.5000°W)
Time: 18:32:41
(UTC-04:00)

ISS - All Passes

Search period start: 19 August 2017 00:00
Search period end: 29 August 2017 00:00
Orbit: 401 x 408 km, 51.6° (Epoch: 20 August)

Date Brightness Start Highest point End Pass type
(mag) Time Alt. Az. Time Alt. Az. Time Alt. Az.
19 Aug - 11:17:02 10° SSW 11:19:59 31° SE 11:22:56 10° ENE daylight
19 Aug - 12:53:17 10° W 12:56:24 40° NNW 12:59:32 10° NE daylight
19 Aug - 14:31:01 10° NW 14:33:30 19° N 14:35:59 10° NE daylight
19 Aug - 16:07:56 10° NW 16:10:45 26° NNE 16:13:33 10° ENE daylight
19 Aug - 17:44:14 10° WNW 17:47:30 75° SW 17:50:45 10° SE daylight
20 Aug - 10:25:40 10° S 10:27:55 17° SE 10:30:11 10° E daylight
20 Aug - 12:00:50 10° WSW 12:04:05 64° NNW 12:07:22 10° NE daylight
20 Aug - 13:38:25 10° WNW 13:41:02 21° N 13:43:39 10° NE daylight
20 Aug - 15:15:41 10° NW 15:18:18 21° N 15:20:54 10° ENE daylight
20 Aug - 16:51:59 10° NW 16:55:14 62° NNE 16:58:29 10° ESE daylight
20 Aug - 18:29:09 10° W 18:31:26 18° SW 18:33:42 10° S daylight
21 Aug - 11:08:34 10° SW 11:11:50 73° SE 11:15:07 10° ENE daylight
21 Aug - 12:45:44 10° WNW 12:48:34 26° NNW 12:51:24 10° NE daylight
21 Aug - 14:23:20 10° NW 14:25:48 19° N 14:28:16 10° NE daylight
21 Aug - 15:59:48 10° NW 16:02:55 39° NNE 16:06:01 10° E daylight
21 Aug - 17:36:23 10° WNW 17:39:20 32° SW 17:42:17 10° SSE daylight
22 Aug - 10:16:33 10° SSW 10:19:38 39° SE 10:22:44 10° ENE daylight
22 Aug - 11:53:05 10° W 11:56:09 35° NNW 11:59:12 10° NE daylight
22 Aug - 13:30:50 10° NW 13:33:17 19° N 13:35:45 10° NE daylight
22 Aug - 15:07:36 10° NW 15:10:30 28° NNE 15:13:24 10° E daylight
22 Aug - 16:43:56 10° WNW 16:47:10 60° SW 16:50:23 10° SE daylight
23 Aug - 09:24:56 10° S 09:27:31 21° SE 09:30:05 10° E daylight
23 Aug - 11:00:32 10° WSW 11:03:46 53° NNW 11:07:00 10° NE daylight
23 Aug - 12:38:12 10° WNW 12:40:46 21° N 12:43:20 10° NE daylight
23 Aug - 14:15:21 10° NW 14:18:01 23° NNE 14:20:43 10° ENE daylight
23 Aug - 15:51:38 10° NW 15:54:54 76° NNE 15:58:10 10° ESE daylight
23 Aug - 17:29:08 10° W 17:31:00 14° SW 17:32:51 10° SSW daylight
24 Aug - 08:34:10 10° SSE 08:35:26 12° SE 08:36:42 10° ESE daylight
24 Aug - 10:08:09 10° SW 10:11:27 89° SE 10:14:45 10° ENE daylight
24 Aug - 11:45:30 10° WNW 11:48:15 24° NNW 11:51:01 10° NE daylight
24 Aug - 13:23:00 10° NW 13:25:30 20° N 13:28:01 10° NE daylight
24 Aug - 14:59:23 10° NW 15:02:33 45° NNE 15:05:43 10° E daylight
24 Aug - 16:36:07 10° WNW 16:38:54 26° SW 16:41:40 10° SSE daylight
25 Aug - 09:16:00 10° SW 09:19:11 48° SE 09:22:23 10° ENE daylight
25 Aug - 10:52:47 10° W 10:55:46 31° NNW 10:58:46 10° NE daylight
25 Aug - 12:30:30 10° NW 12:32:58 19° N 12:35:24 10° NE daylight
25 Aug - 14:07:09 10° NW 14:10:08 31° NNE 14:13:06 10° E daylight
25 Aug - 15:43:33 10° WNW 15:46:43 48° SW 15:49:52 10° SE daylight
26 Aug - 08:24:11 10° SSW 08:26:59 26° SE 08:29:48 10° ENE daylight
26 Aug - 10:00:09 10° W 10:03:20 45° NNW 10:06:32 10° NE daylight
26 Aug - 11:37:53 10° NW 11:40:23 20° N 11:42:54 10° NE daylight
26 Aug - 13:14:53 10° NW 13:17:38 24° NNE 13:20:23 10° ENE daylight
26 Aug - 14:51:09 10° WNW 14:54:27 89° SSW 14:57:42 10° SE daylight
26 Aug - 16:29:15 10° WSW 16:30:26 12° SW 16:31:38 10° SSW daylight
27 Aug - 07:32:57 10° SSE 07:34:51 15° SE 07:36:46 10° E daylight
27 Aug - 09:07:40 10° WSW 09:10:57 75° NNW 09:14:15 10° NE daylight
27 Aug - 10:45:09 10° WNW 10:47:50 23° NNW 10:50:31 10° NE daylight
27 Aug - 12:22:31 10° NW 12:25:06 21° N 12:27:39 10° ENE daylight
27 Aug - 13:58:51 10° NW 14:02:05 53° NNE 14:05:17 10° ESE daylight
27 Aug - 15:35:47 10° W 15:38:20 21° SW 15:40:53 10° S daylight
28 Aug - 08:15:23 10° SW 08:18:38 60° SE 08:21:53 10° ENE daylight
28 Aug - 09:52:23 10° W 09:55:17 28° NNW 09:58:13 10° NE daylight
28 Aug - 11:30:02 10° NW 11:32:30 19° N 11:34:58 10° NE daylight
28 Aug - 13:06:35 10° NW 13:09:38 35° NNE 13:12:41 10° E daylight
28 Aug - 14:43:03 10° WNW 14:46:08 38° SW 14:49:12 10° SSE daylight
